Tracking 27111 objects as of 28-Mar-2023
HD Live streaming from Space Station
objects crossing your sky now

STARLINK-5326

Track STARLINK-5326 now!
10-day predictions
STARLINK-5326 is classified as:


NORAD ID: 55656
Int'l Code: 2023-021AE
Perigee: 364.3 km
Apogee: 368.2 km
Inclination: 70.0 °
Period: 91.7 minutes
Semi major axis: 6737 km
RCS: Unknown
Launch date: February 17, 2023
Source: United States (US)
Launch site: AIR FORCE WESTERN TEST RANGE (AFWTR)
Your satellite tracking list
Your tracking list is empty




NASA's NSSDC Master Catalog

Two Line Element Set (TLE):
1 55656U 23021AE  23087.20945322  .00000546  00000-0  63047-5 0  9992
2 55656  70.0013  41.8585 0002889 248.2432 111.8456 15.69940577  6570
Source of the keplerian elements: AFSPC